Change the Weather History Date:

Wednesday, August 28, 2013

  Actual Average Record
Temperature  
Mean Temperature 71 °F -  
Max Temperature 81 °F 76 °F 86 °F (1948)
Min Temperature 61 °F 52 °F 46 °F (1974)
Cooling Degree Days 6    
Growing Degree Days 21 (Base 50)    
Moisture  
Dew Point 46 °F    
Average Humidity 41    
Maximum Humidity 57    
Minimum Humidity 24    
Precipitation  
Precipitation 0.00 in - - ()
Sea Level Pressure  
Sea Level Pressure 30.33 in    
Wind  
Wind Speed 6 mph (South)    
Max Wind Speed 14 mph    
Max Gust Speed 22 mph    
Visibility 10 miles    
Events      
Averages and records for this station are not official NWS values.
T = Trace of Precipitation, MM = Missing Value Source: NWS Daily Summary

Daily Weather History Graph

Daily Weather History Graph

Search for Another Location

Airport or City:

Trip Planner

Search our weather history database for the weather conditions in past years. The results will help you decide how hot, cold, wet, or windy it might be!

Date:

Astronomy

Aug. 28, 2013 Rise Set
Actual Time 6:34 AM MDT 7:37 PM MDT
Civil Twilight 6:07 AM MDT 8:03 PM MDT
Nautical Twilight 5:36 AM MDT 8:35 PM MDT
Astronomical Twilight 5:03 AM MDT 9:07 PM MDT
Moon No Moon Rise 2:12 PM MDT (8/28)
Length of Visible Light 13h 56m
Length of Day
13h 03m
Waning Gibbous, 47% of the Moon is Illuminated
Aug 28
Waning Gibbous
Sep 5
New
Sep 12
First Quarter
Sep 19
Full
Sep 26
Last Quarter

Hourly Weather History & Observations

Time (MDT) Temp. Dew Point Humidity Pressure Visibility Wind Dir Wind Speed Gust Speed Precip Events Conditions
12:15 AM 66.9 °F 43.3 °F 42% 30.34 in 10.0 mi South 6.9 mph - N/A   Clear
12:35 AM 66.2 °F 43.7 °F 44% 30.34 in 10.0 mi South 6.9 mph - N/A   Clear
12:55 AM 65.7 °F 44.2 °F 46% 30.34 in 10.0 mi South 6.9 mph - N/A   Clear
1:15 AM 64.6 °F 44.6 °F 48% 30.34 in 10.0 mi SSW 5.8 mph - N/A   Clear
1:35 AM 64.9 °F 45.0 °F 48% 30.33 in 10.0 mi South 8.1 mph - N/A   Clear
1:55 AM 64.9 °F 45.1 °F 49% 30.33 in 10.0 mi South 5.8 mph - N/A   Clear
2:15 AM 64.0 °F 44.6 °F 49% 30.33 in 10.0 mi South 5.8 mph - N/A   Clear
2:35 AM 64.6 °F 45.0 °F 49% 30.33 in 10.0 mi South 6.9 mph - N/A   Clear
2:55 AM 64.4 °F 45.5 °F 50% 30.32 in 10.0 mi South 5.8 mph - N/A   Clear
3:15 AM 63.9 °F 45.7 °F 52% 30.31 in 10.0 mi South 5.8 mph - N/A   Clear
3:35 AM 62.8 °F 45.3 °F 53% 30.31 in 10.0 mi SSW 3.5 mph - N/A   Clear
3:55 AM 62.2 °F 45.1 °F 54% 30.30 in 10.0 mi South 6.9 mph - N/A   Clear
4:15 AM 63.5 °F 46.8 °F 54% 30.31 in 10.0 mi South 6.9 mph - N/A   Clear
4:35 AM 63.0 °F 46.9 °F 56% 30.30 in 10.0 mi South 8.1 mph - N/A   Clear
4:55 AM 62.2 °F 46.9 °F 57% 30.30 in 10.0 mi SSW 4.6 mph - N/A   Clear
5:15 AM 62.4 °F 46.4 °F 56% 30.31 in 10.0 mi SSW 5.8 mph - N/A   Clear
5:35 AM 62.4 °F 46.4 °F 56% 30.31 in 10.0 mi South 8.1 mph - N/A   Clear
5:55 AM 61.9 °F 45.5 °F 55% 30.31 in 10.0 mi SSW 5.8 mph - N/A   Clear
6:15 AM 62.1 °F 44.1 °F 52% 30.32 in 10.0 mi Calm Calm - N/A   Clear
6:35 AM 62.4 °F 43.9 °F 51% 30.33 in 10.0 mi Calm Calm - N/A   Clear
6:55 AM 62.6 °F 44.8 °F 52% 30.33 in 10.0 mi Calm Calm - N/A   Clear
7:15 AM 63.1 °F 45.1 °F 52% 30.33 in 10.0 mi Calm Calm - N/A   Clear
7:35 AM 63.7 °F 45.9 °F 52% 30.34 in 10.0 mi Calm Calm - N/A   Clear
7:55 AM 64.9 °F 46.0 °F 50% 30.34 in 10.0 mi Calm Calm - N/A   Clear
8:15 AM 65.3 °F 46.0 °F 50% 30.35 in 10.0 mi Calm Calm - N/A   Clear
8:35 AM 65.5 °F 46.6 °F 50% 30.35 in 10.0 mi NE 3.5 mph - N/A   Clear
8:55 AM 66.6 °F 46.9 °F 49% 30.35 in 10.0 mi NE 3.5 mph - N/A   Clear
9:15 AM 67.8 °F 46.8 °F 47% 30.36 in 10.0 mi Calm Calm - N/A   Clear
9:35 AM 68.7 °F 47.3 °F 46% 30.36 in 10.0 mi ENE 3.5 mph - N/A   Clear
9:55 AM 69.1 °F 48.7 °F 48% 30.37 in 10.0 mi Calm Calm - N/A   Clear
10:15 AM 70.3 °F 48.9 °F 47% 30.37 in 10.0 mi ESE 3.5 mph - N/A   Clear
10:35 AM 71.4 °F 49.3 °F 45% 30.37 in 10.0 mi SE 4.6 mph - N/A   Clear
10:55 AM 72.5 °F 49.1 °F 44% 30.37 in 10.0 mi SE 8.1 mph - N/A   Clear
11:15 AM 73.4 °F 48.4 °F 41% 30.36 in 10.0 mi South 3.5 mph - N/A   Clear
11:35 AM 74.1 °F 48.0 °F 40% 30.36 in 10.0 mi South 4.6 mph - N/A   Clear
11:55 AM 75.4 °F 48.0 °F 38% 30.36 in 10.0 mi South 4.6 mph - N/A   Clear
12:15 PM 76.1 °F 48.2 °F 37% 30.35 in 10.0 mi ESE 5.8 mph - N/A   Clear
12:35 PM 77.2 °F 48.2 °F 36% 30.34 in 10.0 mi SSE 11.5 mph 18.4 mph N/A   Clear
12:55 PM 78.8 °F 46.9 °F 32% 30.34 in 10.0 mi South 11.5 mph 18.4 mph N/A   Clear
1:15 PM 79.9 °F 46.8 °F 31% 30.33 in 10.0 mi South 11.5 mph - N/A   Clear
1:35 PM 78.4 °F 45.3 °F 31% 30.33 in 10.0 mi SE 9.2 mph 17.3 mph N/A   Clear
1:55 PM 79.2 °F 44.6 °F 29% 30.33 in 10.0 mi SSE 8.1 mph - N/A   Clear
2:15 PM 79.2 °F 43.5 °F 28% 30.32 in 10.0 mi SSE 11.5 mph 16.1 mph N/A   Clear
2:35 PM 81.5 °F 43.7 °F 26% 30.31 in 10.0 mi SSE 8.1 mph - N/A   Scattered Clouds
2:55 PM 80.2 °F 42.1 °F 26% 30.31 in 10.0 mi South 4.6 mph - N/A   Scattered Clouds
3:15 PM 79.5 °F 42.4 °F 27% 30.30 in 10.0 mi Calm Calm - N/A   Clear
3:35 PM 80.8 °F 43.2 °F 26% 30.30 in 10.0 mi SE 9.2 mph - N/A   Clear
3:55 PM 81.3 °F 43.0 °F 26% 30.29 in 10.0 mi South 5.8 mph 18.4 mph N/A   Clear
4:15 PM 80.8 °F 43.3 °F 27% 30.29 in 10.0 mi South 10.4 mph 21.9 mph N/A   Clear
4:35 PM 80.1 °F 43.5 °F 27% 30.29 in 10.0 mi South 12.7 mph 19.6 mph N/A   Clear
4:55 PM 80.4 °F 43.5 °F 27% 30.29 in 10.0 mi SSE 11.5 mph 18.4 mph N/A   Clear
5:15 PM 81.1 °F 43.2 °F 26% 30.29 in 10.0 mi SSE 9.2 mph 16.1 mph N/A   Scattered Clouds
5:35 PM 81.9 °F 42.8 °F 25% 30.29 in 10.0 mi South 6.9 mph - N/A   Mostly Cloudy
5:55 PM 81.7 °F 41.2 °F 24% 30.29 in 10.0 mi SSE 10.4 mph 17.3 mph N/A   Overcast
6:15 PM 80.6 °F 42.3 °F 26% 30.30 in 10.0 mi South 11.5 mph 18.4 mph N/A   Mostly Cloudy
6:35 PM 79.7 °F 43.0 °F 27% 30.30 in 10.0 mi South 9.2 mph 18.4 mph N/A   Scattered Clouds
6:55 PM 79.3 °F 43.3 °F 28% 30.30 in 10.0 mi South 13.8 mph 19.6 mph N/A   Scattered Clouds
7:15 PM 78.1 °F 44.6 °F 30% 30.31 in 10.0 mi South 12.7 mph 20.7 mph N/A   Mostly Cloudy
7:35 PM 77.2 °F 44.6 °F 31% 30.31 in 10.0 mi South 11.5 mph - N/A   Mostly Cloudy
7:55 PM 76.1 °F 46.2 °F 35% 30.32 in 10.0 mi SSW 10.4 mph - N/A   Scattered Clouds
8:15 PM 75.2 °F 46.6 °F 36% 30.32 in 10.0 mi SSW 9.2 mph - N/A   Clear
8:35 PM 74.3 °F 47.1 °F 38% 30.33 in 10.0 mi South 9.2 mph - N/A   Clear
8:55 PM 73.6 °F 47.5 °F 39% 30.34 in 10.0 mi South 10.4 mph - N/A   Scattered Clouds
9:15 PM 72.7 °F 47.7 °F 41% 30.34 in 10.0 mi South 9.2 mph - N/A   Clear
9:35 PM 71.8 °F 47.8 °F 43% 30.35 in 10.0 mi South 9.2 mph - N/A   Clear
9:55 PM 71.6 °F 48.2 °F 43% 30.36 in 10.0 mi South 10.4 mph - N/A   Clear
10:15 PM 70.9 °F 48.4 °F 45% 30.37 in 10.0 mi South 10.4 mph - N/A   Clear
10:35 PM 70.3 °F 48.6 °F 46% 30.37 in 10.0 mi South 10.4 mph 17.3 mph N/A   Clear
10:55 PM 70.2 °F 48.6 °F 46% 30.37 in 10.0 mi South 10.4 mph - N/A   Clear
11:15 PM 69.8 °F 48.6 °F 47% 30.37 in 10.0 mi South 6.9 mph - N/A   Clear
11:35 PM 69.3 °F 48.6 °F 48% 30.38 in 10.0 mi South 6.9 mph - N/A   Clear
11:55 PM 68.9 °F 48.4 °F 48% 30.38 in 10.0 mi South 9.2 mph - N/A   Clear